TimeCST,TemperatureF,Dew PointF,Humidity,Sea Level PressureIn,VisibilityMPH,Wind Direction,Wind SpeedMPH,Gust SpeedMPH,PrecipitationIn,Events,Conditions,WindDirDegrees,DateUTC
12:15 AM,51.4,38.8,62,29.86,10.0,South,18.4,-,N/A,,Clear,170,2012-11-22 06:15:00
12:35 AM,51.3,38.7,62,29.85,10.0,South,18.4,23.0,N/A,,Clear,170,2012-11-22 06:35:00
12:55 AM,51.1,38.7,63,29.85,10.0,South,17.3,-,N/A,,Clear,170,2012-11-22 06:55:00
1:15 AM,50.9,38.7,63,29.84,10.0,South,17.3,-,N/A,,Clear,170,2012-11-22 07:15:00
1:35 AM,50.9,38.5,62,29.83,10.0,South,16.1,-,N/A,,Clear,170,2012-11-22 07:35:00
1:55 AM,50.9,38.3,62,29.82,10.0,South,17.3,23.0,N/A,,Clear,170,2012-11-22 07:55:00
2:15 AM,50.5,38.3,63,29.82,10.0,South,19.6,-,N/A,,Clear,170,2012-11-22 08:15:00
2:35 AM,50.4,38.3,63,29.81,10.0,South,17.3,-,N/A,,Clear,170,2012-11-22 08:35:00
2:55 AM,50.2,38.3,64,29.81,10.0,South,17.3,-,N/A,,Clear,170,2012-11-22 08:55:00
3:15 AM,50.0,38.3,64,29.79,10.0,South,17.3,-,N/A,,Clear,170,2012-11-22 09:15:00
3:35 AM,50.0,38.3,64,29.79,10.0,South,17.3,-,N/A,,Clear,170,2012-11-22 09:35:00
4:15 AM,48.6,38.1,67,29.78,10.0,South,13.8,-,N/A,,Clear,170,2012-11-22 10:15:00
4:35 AM,48.4,38.3,68,29.77,10.0,South,12.7,-,N/A,,Clear,180,2012-11-22 10:35:00
5:15 AM,47.7,38.1,70,29.77,10.0,South,12.7,-,N/A,,Clear,180,2012-11-22 11:15:00
5:35 AM,46.8,37.8,71,29.76,10.0,South,11.5,-,N/A,,Clear,180,2012-11-22 11:35:00
5:55 AM,46.0,37.6,72,29.76,10.0,South,8.1,-,N/A,,Clear,170,2012-11-22 11:55:00
6:15 AM,46.0,37.8,73,29.76,10.0,South,11.5,-,N/A,,Clear,170,2012-11-22 12:15:00
6:35 AM,45.5,37.6,74,29.75,10.0,South,8.1,-,N/A,,Clear,180,2012-11-22 12:35:00
6:55 AM,44.6,37.4,76,29.75,10.0,South,9.2,-,N/A,,Clear,180,2012-11-22 12:55:00
7:15 AM,44.6,37.4,76,29.74,10.0,South,11.5,-,N/A,,Clear,180,2012-11-22 13:15:00
7:35 AM,46.2,38.3,74,29.74,10.0,South,13.8,-,N/A,,Clear,190,2012-11-22 13:35:00
7:55 AM,46.8,38.3,72,29.75,10.0,South,11.5,-,N/A,,Clear,190,2012-11-22 13:55:00
8:15 AM,47.3,38.7,72,29.75,10.0,South,13.8,-,N/A,,Clear,190,2012-11-22 14:15:00
8:35 AM,47.7,38.8,71,29.74,10.0,South,15.0,-,N/A,,Clear,190,2012-11-22 14:35:00
8:55 AM,48.2,39.2,71,29.74,10.0,South,13.8,-,N/A,,Clear,190,2012-11-22 14:55:00
9:15 AM,49.3,39.6,69,29.73,10.0,South,15.0,-,N/A,,Clear,190,2012-11-22 15:15:00
9:35 AM,52.7,40.5,63,29.73,10.0,SSW,17.3,21.9,N/A,,Clear,200,2012-11-22 15:35:00
9:55 AM,55.0,41.7,61,29.72,10.0,SSW,20.7,26.5,N/A,,Clear,200,2012-11-22 15:55:00
10:15 AM,58.1,42.6,56,29.73,10.0,SSW,18.4,24.2,N/A,,Clear,200,2012-11-22 16:15:00
10:35 AM,59.9,43.3,54,29.74,10.0,SW,20.7,-,N/A,,Clear,220,2012-11-22 16:35:00
10:55 AM,57.7,43.2,58,29.74,10.0,SW,19.6,23.0,N/A,,Clear,230,2012-11-22 16:55:00
11:15 AM,59.2,43.7,57,29.73,10.0,SW,19.6,26.5,N/A,,Clear,230,2012-11-22 17:15:00
11:35 AM,60.4,43.9,54,29.72,10.0,SW,23.0,28.8,N/A,,Clear,220,2012-11-22 17:35:00
12:15 PM,61.9,43.9,52,29.71,10.0,WSW,18.4,-,N/A,,Clear,240,2012-11-22 18:15:00
12:35 PM,62.2,44.2,52,29.71,10.0,WSW,15.0,-,N/A,,Clear,250,2012-11-22 18:35:00
1:15 PM,64.2,41.5,44,29.71,10.0,WSW,16.1,19.6,N/A,,Clear,250,2012-11-22 19:15:00
1:35 PM,64.4,39.9,41,29.72,10.0,West,23.0,28.8,N/A,,Clear,260,2012-11-22 19:35:00
2:15 PM,63.7,35.6,35,29.74,10.0,West,27.6,33.4,N/A,,Clear,280,2012-11-22 20:15:00
2:35 PM,62.6,37.0,39,29.75,10.0,WNW,28.8,34.5,N/A,,Clear,290,2012-11-22 20:35:00
2:55 PM,57.7,36.7,45,29.78,10.0,WNW,32.2,40.3,N/A,,Clear,300,2012-11-22 20:55:00
3:15 PM,55.8,36.5,48,29.80,10.0,NW,25.3,31.1,N/A,,Clear,310,2012-11-22 21:15:00
3:35 PM,55.0,36.7,50,29.82,10.0,NW,28.8,34.5,N/A,,Clear,320,2012-11-22 21:35:00
3:55 PM,51.3,35.2,54,29.84,10.0,NW,27.6,39.1,N/A,,Clear,310,2012-11-22 21:55:00
4:15 PM,48.9,34.9,58,29.87,10.0,WNW,24.2,34.5,N/A,,Clear,300,2012-11-22 22:15:00
4:35 PM,46.4,33.8,62,29.89,10.0,WNW,20.7,29.9,N/A,,Clear,300,2012-11-22 22:35:00
4:55 PM,45.5,33.1,62,29.91,10.0,NW,23.0,33.4,N/A,,Clear,310,2012-11-22 22:55:00
5:15 PM,44.6,32.9,64,29.92,10.0,NW,17.3,23.0,N/A,,Scattered Clouds,310,2012-11-22 23:15:00
5:35 PM,45.0,33.1,63,29.93,10.0,WNW,27.6,32.2,N/A,,Overcast,300,2012-11-22 23:35:00
5:55 PM,44.2,32.4,63,29.95,10.0,NW,31.1,39.1,N/A,,Overcast,310,2012-11-22 23:55:00
6:15 PM,42.6,31.6,65,29.98,10.0,NW,26.5,35.7,N/A,,Overcast,310,2012-11-23 00:15:00
6:35 PM,40.6,30.7,68,30.00,10.0,WNW,33.4,41.4,N/A,,Overcast,300,2012-11-23 00:35:00
6:55 PM,40.6,31.1,69,30.01,10.0,NW,24.2,35.7,N/A,,Overcast,310,2012-11-23 00:55:00
7:15 PM,41.0,31.6,69,30.01,10.0,WNW,21.9,34.5,N/A,,Overcast,300,2012-11-23 01:15:00
7:35 PM,41.0,31.8,70,30.02,10.0,WNW,21.9,28.8,N/A,,Overcast,300,2012-11-23 01:35:00
7:55 PM,41.2,31.3,68,30.03,10.0,WNW,23.0,29.9,N/A,,Overcast,300,2012-11-23 01:55:00
8:15 PM,40.6,30.2,66,30.03,10.0,WNW,21.9,35.7,N/A,,Mostly Cloudy,300,2012-11-23 02:15:00
8:35 PM,41.4,30.6,65,30.05,10.0,WNW,18.4,-,N/A,,Overcast,290,2012-11-23 02:35:00
8:55 PM,41.5,29.3,62,30.04,10.0,WNW,23.0,34.5,N/A,,Overcast,300,2012-11-23 02:55:00
9:15 PM,41.5,29.7,63,30.05,10.0,WNW,20.7,26.5,N/A,,Overcast,290,2012-11-23 03:15:00
9:35 PM,41.4,29.1,62,30.06,10.0,WNW,25.3,34.5,N/A,,Overcast,300,2012-11-23 03:35:00
9:55 PM,40.1,27.5,61,30.06,10.0,WNW,27.6,35.7,N/A,,Overcast,290,2012-11-23 03:55:00
10:15 PM,39.6,27.1,61,30.06,10.0,WNW,27.6,34.5,N/A,,Mostly Cloudy,300,2012-11-23 04:15:00
10:35 PM,37.2,24.8,61,30.06,10.0,WNW,24.2,34.5,N/A,,Scattered Clouds,290,2012-11-23 04:35:00
10:55 PM,36.1,23.9,61,30.06,10.0,WNW,21.9,28.8,N/A,,Clear,290,2012-11-23 04:55:00
11:15 PM,35.4,23.2,61,30.06,10.0,WNW,21.9,31.1,N/A,,Clear,290,2012-11-23 05:15:00
11:35 PM,34.0,23.0,64,30.07,10.0,West,17.3,-,N/A,,Clear,280,2012-11-23 05:35:00
11:55 PM,33.3,22.1,64,30.08,10.0,West,21.9,28.8,N/A,,Clear,280,2012-11-23 05:55:00